Flag for United Kingdom Weather past 2 weeks in Derby, England, United Kingdom

Now
54 °F

Scattered clouds.


Feels Like: 53 °F
Forecast: 49 / 59 °F
Wind: 5 mph from West

Location: East Midlands

Current Time: Sep 2, 2015 at 8:04:55 PM

Latest Report: Sep 2, 2015 at 7:20 PM


Visibility: N/A

Pressure: 30.01 "Hg

Humidity: 82%

Dew point: 48 °F

Location of DerbyLocation

Historic Weather in Derby — Graph

°F

Derby temperature yesterday

Maximum temperature yesterday: 63 °F (at 11:20 AM)
Minimum temperature yesterday: 52 °F (at 5:20 AM)
Average temperature yesterday: 56 °F

Past Weeks' High & Low Weather Summary

 TemperatureHumidityPressure
High82 °F (Aug 22, 3:50 PM)100% (Aug 20, 3:50 AM)30.09 "Hg (Aug 20, 3:50 AM)
Low48 °F (Sep 2, 3:20 AM)40% (Aug 29, 5:20 PM)29.47 "Hg (Aug 23, 1:20 PM)
Average61 °F78%29.88 "Hg
* Reported Aug 18 6:20 PM — Sep 2 6:50 PM, Derby, Weather by CustomWeather, © 2015

Note: Actual official high and low records may vary slightly from our data, if they occured in-between our weather recording intervals... More about our weather records

Advertising

Derby weather history for previous 24 hours

 ConditionsComfort  
Time TempWeatherWind HumidityBarometerVisibility
6:50 PM
Wed, Sep 2
55 °FScattered clouds.6 mph82%30.01 "HgN/A
6:20 PM57 °FScattered showers. Scattered clouds.6 mph82%30.01 "HgN/A
5:50 PM57 °FScattered clouds.7 mph77%30.01 "HgN/A
5:20 PM57 °FScattered clouds.5 mph77%30.01 "HgN/A
4:20 PM55 °FLight rain. Scattered clouds.7 mph88%30.04 "HgN/A
3:50 PM59 °FScattered showers. Scattered clouds.8 mph72%30.04 "HgN/A
3:20 PM61 °FScattered showers. Passing clouds.13 mph68%30.04 "HgN/A
2:50 PM63 °FPassing clouds.9 mph64%30.04 "HgN/A
2:20 PM64 °FPassing clouds.7 mph60%30.04 "HgN/A
1:50 PM61 °FPassing clouds.7 mph68%30.04 "HgN/A
1:20 PM61 °FScattered clouds.9 mph68%30.04 "HgN/A
12:50 PM57 °FSprinkles. Broken clouds.10 mph77%30.07 "HgN/A
12:20 PM59 °FScattered showers. Broken clouds.10 mph72%30.07 "HgN/A
11:50 AM59 °FBroken clouds.3 mph72%30.07 "HgN/A
11:20 AM57 °FPartly sunny.3 mph72%30.07 "HgN/A
10:50 AM59 °FScattered clouds.5 mph72%30.07 "HgN/A
9:50 AM57 °FScattered clouds.5 mph77%30.07 "HgN/A
9:20 AM55 °FScattered clouds.5 mph88%30.07 "HgN/A
8:50 AM54 °FPassing clouds.7 mph94%30.07 "HgN/A
8:20 AM52 °FPassing clouds.5 mph94%30.07 "Hg6 mi
7:50 AM52 °FScattered clouds.7 mph94%30.07 "Hg6 mi
7:20 AM50 °FClear.8 mph100%30.07 "Hg6 mi
6:50 AM50 °FClear.9 mph94%30.07 "Hg5 mi
6:20 AM50 °FClear.7 mph94%30.04 "Hg5 mi
5:50 AM48 °FPassing clouds.7 mph94%30.04 "Hg5 mi
4:50 AM48 °FPassing clouds.10 mph100%30.07 "HgN/A
4:20 AM48 °FPassing clouds.10 mph100%30.07 "HgN/A
3:50 AM48 °FPassing clouds.12 mph100%30.07 "HgN/A
3:20 AM48 °FPassing clouds.10 mph100%30.07 "HgN/A
2:50 AM50 °FClear.10 mph94%30.07 "Hg10 mi
2:20 AM50 °FClear.12 mph94%30.07 "Hg10 mi
1:50 AM50 °FClear.10 mph94%30.07 "Hg10 mi
1:20 AM50 °FClear.12 mph94%30.07 "Hg10 mi
12:50 AM52 °FClear.9 mph94%30.09 "Hg10 mi
12:20 AM52 °FClear.8 mph88%30.09 "Hg10 mi
11:50 PM
Tue, Sep 1
52 °FClear.8 mph88%30.09 "Hg10 mi
10:50 PM54 °FClear.10 mph88%30.09 "Hg10 mi
9:50 PM54 °FClear.7 mph82%30.09 "Hg10 mi
9:20 PM55 °FPassing clouds.7 mph77%30.09 "HgN/A
8:50 PM54 °FSunny.8 mph82%30.09 "Hg10 mi
8:20 PM54 °FSunny.7 mph82%30.07 "Hg10 mi
Weather by CustomWeather, © 2015

See weather overviewHow to use our weather pages